| time (UTC) | temp C | wind direction | speed KPH | gust KPH | rain 1hr cm | rain 24hr cm | rain mn cm | humidity % | barometer mb |
| 20260507031025 | 9 | 359 | 0.0 | 0.0 | 0.00 | 0.89 | 0.89 | 89 | 1011.0 |
| 20260507030024 | 9 | 359 | 0.0 | 0.0 | 0.00 | 0.89 | 0.89 | 88 | 1010.8 |
| 20260507025025 | 9 | 359 | 0.0 | 0.0 | 0.00 | 0.89 | 0.89 | 89 | 1010.8 |
| 20260507023025 | 10 | 359 | 0.0 | 1.6 | 0.00 | 0.89 | 0.89 | 89 | 1011.0 |
| 20260507022025 | 10 | 359 | 0.0 | 1.6 | 0.00 | 0.89 | 0.89 | 89 | 1011.2 |
| 20260507021025 | 10 | 359 | 0.0 | 0.0 | 0.00 | 0.89 | 0.89 | 89 | 1011.4 |
| 20260507020025 | 10 | 359 | 0.0 | 0.0 | 0.00 | 0.89 | 0.89 | 89 | 1011.5 |
| 20260507015025 | 10 | 359 | 0.0 | 0.0 | 0.00 | 0.89 | 0.89 | 89 | 1011.3 |
| 20260507014025 | 10 | 359 | 0.0 | 1.6 | 0.00 | 0.89 | 0.89 | 88 | 1011.4 |
| 20260507013025 | 10 | 359 | 1.6 | 4.8 | 0.00 | 0.89 | 0.89 | 88 | 1011.4 |
| 20260507011025 | 10 | 354 | 0.0 | 3.2 | 0.00 | 0.89 | 0.89 | 88 | 1011.4 |
| 20260507010025 | 10 | 323 | 1.6 | 3.2 | 0.00 | 0.89 | 0.89 | 87 | 1011.1 |
| 20260507005025 | 10 | 38 | 0.0 | 4.8 | 0.00 | 0.89 | 0.89 | 88 | 1010.8 |
| 20260507004025 | 10 | 315 | 1.6 | 4.8 | 0.00 | 0.89 | 0.89 | 87 | 1010.7 |
| 20260507003025 | 10 | 328 | 1.6 | 4.8 | 0.00 | 0.89 | 0.89 | 87 | 1010.5 |
| 20260507002024 | 11 | 16 | 0.0 | 9.7 | 0.00 | 0.89 | 0.89 | 88 | 1010.4 |
| 20260507001024 | 11 | 14 | 0.0 | 3.2 | 0.00 | 0.89 | 0.89 | 88 | 1009.9 |
| 20260507000024 | 11 | 359 | 0.0 | 0.0 | 0.00 | 0.89 | 0.89 | 88 | 1009.7 |
| 20260506234025 | 11 | 359 | 0.0 | 4.8 | 0.00 | 0.89 | 0.89 | 89 | 1009.4 |
| 20260506232025 | 11 | 354 | 3.2 | 8.0 | 0.00 | 0.89 | 0.89 | 88 | 1009.0 |
| 20260506231025 | 11 | 349 | 3.2 | 16.1 | 0.00 | 0.89 | 0.89 | 88 | 1008.8 |
| 20260506230025 | 11 | 317 | 9.7 | 20.9 | 0.00 | 0.89 | 0.89 | 87 | 1008.7 |
| 20260506225025 | 12 | 293 | 8.0 | 20.9 | 0.00 | 0.89 | 0.89 | 88 | 1008.7 |
| 20260506224025 | 12 | 308 | 8.0 | 20.9 | 0.00 | 0.89 | 0.89 | 89 | 1008.5 |
| 20260506223025 | 12 | 354 | 8.0 | 20.9 | 0.00 | 0.89 | 0.89 | 88 | 1008.2 |
| 20260506221025 | 13 | 328 | 4.8 | 19.3 | 0.00 | 0.89 | 0.89 | 88 | 1007.8 |
| 20260506214025 | 17 | 324 | 6.4 | 12.9 | 0.00 | 0.89 | 0.89 | 86 | 1006.7 |
| 20260506213025 | 17 | 258 | 1.6 | 9.7 | 0.00 | 0.89 | 0.89 | 87 | 1006.6 |
| 20260506212025 | 17 | 187 | 1.6 | 8.0 | 0.00 | 0.89 | 0.89 | 89 | 1006.5 |
| 20260506210025 | 16 | 216 | 4.8 | 14.5 | 0.00 | 0.89 | 0.89 | 88 | 1006.2 |
| 20260506204025 | 16 | 247 | 1.6 | 14.5 | 0.00 | 0.89 | 0.89 | 89 | 1006.0 |
| 20260506203025 | 16 | 243 | 1.6 | 8.0 | 0.00 | 0.89 | 0.89 | 91 | 1006.0 |
| 20260506202025 | 16 | 170 | 3.2 | 9.7 | 0.00 | 0.89 | 0.89 | 90 | 1006.0 |
| 20260506195025 | 16 | 256 | 4.8 | 12.9 | 0.00 | 0.89 | 0.89 | 91 | 1006.1 |
| 20260506194025 | 16 | 180 | 3.2 | 9.7 | 0.00 | 0.89 | 0.89 | 93 | 1006.1 |
| 20260506192025 | 16 | 171 | 4.8 | 14.5 | 0.00 | 0.89 | 0.89 | 93 | 1006.2 |
| 20260506191025 | 16 | 214 | 8.0 | 19.3 | 0.00 | 0.89 | 0.89 | 95 | 1006.3 |
| 20260506190024 | 16 | 243 | 8.0 | 24.1 | 0.00 | 0.89 | 0.89 | 96 | 1006.2 |
| 20260506185025 | 15 | 172 | 3.2 | 24.1 | 0.00 | 0.89 | 0.89 | 96 | 1006.2 |
| 20260506184026 | 15 | 174 | 4.8 | 12.9 | 0.00 | 0.89 | 0.89 | 97 | 1006.1 |
| 20260506182025 | 15 | 202 | 1.6 | 4.8 | 0.03 | 0.89 | 0.89 | 96 | 1006.4 |
| 20260506181025 | 15 | 252 | 3.2 | 14.5 | 0.03 | 0.89 | 0.89 | 96 | 1006.7 |
| 20260506175025 | 15 | 187 | 1.6 | 4.8 | 0.03 | 0.89 | 0.89 | 96 | 1006.5 |
| 20260506174025 | 14 | 253 | 1.6 | 8.0 | 0.03 | 0.89 | 0.89 | 96 | 1006.5 |
| 20260506173025 | 14 | 238 | 1.6 | 4.8 | 0.03 | 0.89 | 0.89 | 96 | 1006.5 |
| 20260506172025 | 14 | 237 | 1.6 | 8.0 | 0.00 | 0.86 | 0.86 | 96 | 1006.5 |
| 20260506171025 | 14 | 181 | 3.2 | 11.3 | 0.00 | 0.86 | 0.86 | 96 | 1006.6 |
| 20260506170025 | 14 | 203 | 3.2 | 14.5 | 0.00 | 0.86 | 0.86 | 95 | 1006.6 |
| 20260506164024 | 14 | 220 | 1.6 | 4.8 | 0.03 | 0.86 | 0.86 | 95 | 1006.6 |
| 20260506162025 | 14 | 173 | 1.6 | 11.3 | 0.05 | 0.86 | 0.86 | 95 | 1006.7 |
| 20260506161024 | 14 | 173 | 1.6 | 4.8 | 0.08 | 0.86 | 0.86 | 95 | 1006.7 |
| 20260506160024 | 14 | 177 | 1.6 | 4.8 | 0.10 | 0.86 | 0.86 | 95 | 1006.6 |
| 20260506155025 | 14 | 195 | 1.6 | 4.8 | 0.15 | 0.86 | 0.86 | 95 | 1006.5 |
| 20260506154024 | 14 | 169 | 1.6 | 4.8 | 0.18 | 0.84 | 0.84 | 95 | 1006.5 |
| 20260506153024 | 14 | 151 | 3.2 | 4.8 | 0.20 | 0.84 | 0.84 | 95 | 1006.3 |
| 20260506152025 | 14 | 151 | 1.6 | 4.8 | 0.23 | 0.81 | 0.81 | 95 | 1006.4 |
| 20260506151025 | 13 | 171 | 1.6 | 8.0 | 0.28 | 0.79 | 0.79 | 95 | 1006.5 |
| 20260506150025 | 14 | 177 | 1.6 | 4.8 | 0.30 | 0.76 | 0.76 | 94 | 1006.6 |
| 20260506145025 | 14 | 177 | 1.6 | 4.8 | 0.28 | 0.71 | 0.71 | 94 | 1006.8 |
| 20260506143024 | 14 | 167 | 1.6 | 8.0 | 0.28 | 0.64 | 0.64 | 94 | 1006.7 |
| 20260506142024 | 14 | 196 | 1.6 | 8.0 | 0.23 | 0.58 | 0.58 | 93 | 1006.6 |
| 20260506141025 | 14 | 166 | 3.2 | 8.0 | 0.20 | 0.51 | 0.51 | 93 | 1006.6 |
| 20260506135025 | 14 | 180 | 3.2 | 8.0 | 0.23 | 0.43 | 0.43 | 93 | 1006.6 |
| 20260506134024 | 14 | 183 | 1.6 | 4.8 | 0.28 | 0.41 | 0.41 | 92 | 1006.8 |
| 20260506133025 | 14 | 166 | 1.6 | 4.8 | 0.25 | 0.36 | 0.36 | 92 | 1006.8 |
| 20260506132025 | 14 | 180 | 4.8 | 8.0 | 0.28 | 0.36 | 0.36 | 91 | 1006.8 |
| 20260506130024 | 14 | 176 | 1.6 | 4.8 | 0.20 | 0.23 | 0.23 | 90 | 1007.0 |
| 20260506125025 | 14 | 212 | 0.0 | 1.6 | 0.20 | 0.20 | 0.20 | 89 | 1007.3 |
| 20260506124025 | 15 | 211 | 0.0 | 4.8 | 0.13 | 0.13 | 0.13 | 88 | 1007.4 |
| 20260506122025 | 15 | 270 | 3.2 | 12.9 | 0.08 | 0.08 | 0.08 | 83 | 1007.4 |
| 20260506121024 | 15 | 182 | 4.8 | 8.0 | 0.05 | 0.05 | 0.05 | 80 | 1007.3 |
| 20260506120025 | 16 | 180 | 1.6 | 4.8 | 0.03 | 0.03 | 0.03 | 76 | 1007.2 |
| 20260506115025 | 16 | 193 | 0.0 | 1.6 | 0.00 | 0.00 | 0.00 | 75 | 1006.9 |
| 20260506114025 | 16 | 259 | 0.0 | 0.0 | 0.00 | 0.00 | 0.00 | 71 | 1006.8 |
| 20260506113025 | 16 | 271 | 0.0 | 0.0 | 0.00 | 0.00 | 0.00 | 68 | 1006.8 |
| 20260506112025 | 17 | 271 | 0.0 | 0.0 | 0.00 | 0.00 | 0.00 | 67 | 1006.9 |
| 20260506111025 | 17 | 271 | 0.0 | 0.0 | 0.00 | 0.00 | 0.00 | 64 | 1006.7 |
| 20260506110025 | 17 | 270 | 0.0 | 0.0 | 0.00 | 0.00 | 0.00 | 60 | 1006.6 |
| 20260506105025 | 17 | 271 | 0.0 | 0.0 | 0.00 | 0.00 | 0.00 | 60 | 1006.4 |
| 20260506104025 | 17 | 271 | 0.0 | 4.8 | 0.00 | 0.00 | 0.00 | 60 | 1006.3 |
| 20260506103025 | 18 | 271 | 0.0 | 4.8 | 0.00 | 0.00 | 0.00 | 60 | 1006.2 |
| 20260506102025 | 18 | 231 | 1.6 | 8.0 | 0.00 | 0.00 | 0.00 | 60 | 1006.4 |
| 20260506101025 | 18 | 160 | 3.2 | 8.0 | 0.00 | 0.00 | 0.00 | 60 | 1006.0 |
| 20260506095025 | 18 | 156 | 3.2 | 12.9 | 0.00 | 0.00 | 0.00 | 57 | 1006.1 |
| 20260506093025 | 18 | 165 | 3.2 | 8.0 | 0.00 | 0.00 | 0.00 | 55 | 1006.1 |
| 20260506092025 | 18 | 163 | 3.2 | 4.8 | 0.00 | 0.00 | 0.00 | 54 | 1006.0 |
| 20260506091025 | 18 | 156 | 1.6 | 4.8 | 0.00 | 0.00 | 0.00 | 54 | 1006.2 |
| 20260506090025 | 18 | 175 | 1.6 | 4.8 | 0.00 | 0.00 | 0.00 | 54 | 1006.1 |
| 20260506085025 | 18 | 164 | 0.0 | 4.8 | 0.00 | 0.00 | 0.00 | 53 | 1006.2 |
| 20260506084025 | 18 | 170 | 0.0 | 4.8 | 0.00 | 0.00 | 0.00 | 53 | 1006.2 |
| 20260506082024 | 18 | 191 | 1.6 | 8.0 | 0.00 | 0.00 | 0.00 | 52 | 1006.2 |
| 20260506081025 | 18 | 200 | 0.0 | 4.8 | 0.00 | 0.00 | 0.00 | 53 | 1006.4 |
| 20260506073025 | 18 | 181 | 3.2 | 4.8 | 0.00 | 0.00 | 0.00 | 49 | 1006.4 |
| 20260506072025 | 18 | 190 | 3.2 | 8.0 | 0.00 | 0.00 | 0.00 | 49 | 1006.4 |
| 20260506071025 | 18 | 174 | 3.2 | 4.8 | 0.00 | 0.00 | 0.00 | 49 | 1006.3 |
| 20260506062026 | 19 | 166 | 3.2 | 8.0 | 0.00 | 0.00 | 0.00 | 48 | 1006.9 |
| 20260506061025 | 19 | 168 | 1.6 | 4.8 | 0.00 | 0.00 | 0.00 | 47 | 1007.1 |
| 20260506051025 | 19 | 164 | 4.8 | 8.0 | 0.00 | 0.00 | 0.00 | 47 | 1007.6 |
| 20260506045025 | 19 | 161 | 3.2 | 9.7 | 0.00 | 0.00 | 0.00 | 48 | 1007.7 |
| 20260506044025 | 19 | 164 | 3.2 | 8.0 | 0.00 | 0.00 | 0.00 | 49 | 1007.7 |
| 20260506043025 | 19 | 162 | 3.2 | 4.8 | 0.00 | 0.00 | 0.00 | 49 | 1007.5 |
| 20260506042025 | 20 | 168 | 3.2 | 8.0 | 0.00 | 0.00 | 0.00 | 48 | 1007.4 |
| 20260506041025 | 20 | 164 | 3.2 | 4.8 | 0.00 | 0.00 | 0.00 | 48 | 1007.5 |
| 20260506040025 | 20 | 160 | 1.6 | 4.8 | 0.00 | 0.00 | 0.00 | 49 | 1007.7 |
| 20260506033024 | 20 | 170 | 1.6 | 4.8 | 0.00 | 0.00 | 0.00 | 50 | 1007.8 |
| 20260506032024 | 20 | 172 | 1.6 | 4.8 | 0.00 | 0.00 | 0.00 | 51 | 1007.7 |